Location: �perlecques
(50.8057°N, 2.1521°E)
Time: 13:08:11
(UTC+00:00)

Vanguard 3 - Pass Details

Date: 01 August 2021
Orbit: 509 x 3260 km, 33.4° (Epoch: 27 September)

Event Time Altitude Azimuth Distance (km) Brightness Sun altitude
Rises 22:24:48 0° 270° (W) 6,863 12.2 -18.4°
Reaches altitude 10° 22:29:54 10° 262° (W) 6,047 11.7 -18.8°
Maximum altitude 22:45:37 32° 209° (SSW) 4,530 10.5 -19.6°
Enters shadow 22:53:32 24° 174° (S) 4,770 10.4 -20.0°
